TimeEST,TemperatureF,Dew PointF,Humidity,Sea Level PressureIn,VisibilityMPH,Wind Direction,Wind SpeedMPH,Gust SpeedMPH,PrecipitationIn,Events,Conditions,WindDirDegrees,DateUTC
12:08 AM,19.4,19.4,100,29.64,2.0,SW,28.8,35.7,N/A,Snow,Light Snow,220,2014-01-25 05:08:00
12:13 AM,19.4,19.4,100,29.64,1.8,SW,24.2,34.5,N/A,Snow,Light Snow,220,2014-01-25 05:13:00
12:23 AM,19.4,19.4,100,29.63,1.5,SW,28.8,34.5,N/A,Snow,Light Snow,230,2014-01-25 05:23:00
12:38 AM,19.4,19.4,100,29.62,1.2,SW,28.8,34.5,N/A,Snow,Light Snow,220,2014-01-25 05:38:00
12:53 AM,19.4,19.4,100,29.60,1.5,SW,27.6,33.4,N/A,Snow,Light Snow,220,2014-01-25 05:53:00
12:58 AM,19.9,19.9,100,29.65,1.5,SW,25.3,32.2,0.01,Snow,Light Snow,220,2014-01-25 05:58:00
1:18 AM,19.4,19.4,100,29.58,1.5,SW,26.5,33.4,N/A,Snow,Light Snow,220,2014-01-25 06:18:00
1:23 AM,19.4,19.4,100,29.58,1.8,SW,25.3,33.4,N/A,Snow,Light Snow,220,2014-01-25 06:23:00
1:58 AM,20.5,20.5,100,29.60,1.5,SW,26.5,34.5,0.00,Snow,Light Snow,220,2014-01-25 06:58:00
2:03 AM,21.2,21.2,100,29.54,1.5,SW,28.8,34.5,N/A,Snow,Light Snow,220,2014-01-25 07:03:00
2:18 AM,21.2,21.2,100,29.53,2.0,SW,26.5,33.4,N/A,Snow,Light Snow,220,2014-01-25 07:18:00
2:23 AM,21.2,21.2,100,29.53,2.5,SW,27.6,39.1,N/A,Snow,Light Snow,220,2014-01-25 07:23:00
2:33 AM,21.2,21.2,100,29.52,2.5,SW,29.9,38.0,N/A,Snow,Light Snow,220,2014-01-25 07:33:00
2:38 AM,21.2,21.2,100,29.52,2.0,SW,28.8,38.0,N/A,Snow,Light Snow,220,2014-01-25 07:38:00
2:48 AM,21.2,21.2,100,29.51,1.8,SW,29.9,39.1,N/A,Snow,Light Snow,220,2014-01-25 07:48:00
2:58 AM,21.4,21.4,100,29.56,1.5,SW,31.1,38.0,0.00,Snow,Light Snow,230,2014-01-25 07:58:00
3:08 AM,21.2,21.2,100,29.51,2.0,SW,27.6,38.0,N/A,Snow,Light Snow,220,2014-01-25 08:08:00
3:13 AM,21.2,21.2,100,29.50,1.8,SW,27.6,35.7,N/A,Snow,Light Snow,220,2014-01-25 08:13:00
3:18 AM,21.2,21.2,100,29.50,1.2,SW,29.9,35.7,N/A,Snow,Light Snow,230,2014-01-25 08:18:00
3:23 AM,21.2,21.2,100,29.50,1.0,SW,26.5,36.8,N/A,Snow,Light Snow,230,2014-01-25 08:23:00
3:33 AM,21.2,21.2,100,29.49,1.2,SW,24.2,-,N/A,Snow,Light Snow,220,2014-01-25 08:33:00
3:38 AM,21.2,21.2,100,29.49,1.5,SW,27.6,33.4,N/A,Snow,Light Snow,220,2014-01-25 08:38:00
3:48 AM,21.2,21.2,100,29.49,1.2,SW,28.8,39.1,N/A,Snow,Light Snow,230,2014-01-25 08:48:00
3:58 AM,21.9,21.9,100,29.53,1.2,SW,31.1,36.8,0.00,Snow,Light Snow,220,2014-01-25 08:58:00
4:03 AM,21.2,21.2,100,29.48,1.5,SW,29.9,36.8,N/A,Snow,Light Snow,220,2014-01-25 09:03:00
4:05 AM,21.2,21.2,100,29.48,1.8,SW,29.9,36.8,N/A,Snow,Light Snow,230,2014-01-25 09:05:00
4:10 AM,21.2,21.2,100,29.48,2.0,SW,28.8,35.7,N/A,Snow,Light Snow,230,2014-01-25 09:10:00
4:15 AM,21.2,21.2,100,29.48,1.8,SW,25.3,-,N/A,Snow,Light Snow,230,2014-01-25 09:15:00
4:20 AM,23.0,23.0,100,29.47,2.0,SW,24.2,-,N/A,Snow,Light Snow,230,2014-01-25 09:20:00
4:30 AM,23.0,23.0,100,29.47,2.0,SW,23.0,-,N/A,Snow,Light Snow,230,2014-01-25 09:30:00
4:35 AM,23.0,23.0,100,29.46,2.0,SW,25.3,-,N/A,Snow,Light Snow,230,2014-01-25 09:35:00
4:40 AM,23.0,23.0,100,29.46,1.5,SW,24.2,-,N/A,Snow,Light Snow,230,2014-01-25 09:40:00
4:55 AM,23.0,23.0,100,29.45,1.2,SW,24.2,33.4,N/A,Snow,Light Snow,230,2014-01-25 09:55:00
4:58 AM,22.6,22.6,100,29.50,1.2,SW,24.2,33.4,0.00,Snow,Light Snow,230,2014-01-25 09:58:00
5:03 AM,23.0,23.0,100,29.45,1.5,SW,25.3,-,N/A,Snow,Light Snow,230,2014-01-25 10:03:00
5:43 AM,23.0,23.0,100,29.43,1.2,SW,29.9,-,N/A,Snow,Light Snow,230,2014-01-25 10:43:00
5:48 AM,23.0,23.0,100,29.43,1.5,SW,28.8,33.4,N/A,Snow,Light Snow,230,2014-01-25 10:48:00
5:53 AM,23.0,23.0,100,29.43,2.0,WSW,28.8,34.5,N/A,Snow,Light Snow,240,2014-01-25 10:53:00
5:58 AM,23.9,23.9,100,29.48,2.5,SW,27.6,34.5,0.00,Snow,Light Snow,230,2014-01-25 10:58:00
6:03 AM,24.8,24.8,100,29.42,3.0,SW,27.6,33.4,N/A,Snow,Light Snow,230,2014-01-25 11:03:00
6:08 AM,24.8,24.8,100,29.42,2.5,SW,27.6,36.8,N/A,Snow,Light Snow,230,2014-01-25 11:08:00
6:18 AM,24.8,24.8,100,29.42,3.0,SW,31.1,36.8,N/A,Snow,Light Snow,230,2014-01-25 11:18:00
6:23 AM,24.8,24.8,100,29.42,3.0,WSW,28.8,36.8,N/A,Snow,Light Snow,240,2014-01-25 11:23:00
6:33 AM,24.8,24.8,100,29.42,4.0,WSW,23.0,-,N/A,Snow,Light Snow,240,2014-01-25 11:33:00
6:38 AM,24.8,24.8,100,29.42,5.0,WSW,25.3,32.2,N/A,Snow,Light Snow,240,2014-01-25 11:38:00
6:43 AM,24.8,24.8,100,29.42,5.0,WSW,24.2,32.2,N/A,Snow,Light Snow,250,2014-01-25 11:43:00
6:48 AM,24.8,24.8,100,29.42,5.0,WSW,23.0,31.1,N/A,Snow,Light Snow,240,2014-01-25 11:48:00
6:53 AM,24.8,24.8,100,29.42,5.0,WSW,21.9,-,N/A,Snow,Light Snow,240,2014-01-25 11:53:00
6:58 AM,25.0,25.0,100,29.47,6.0,WSW,23.0,-,0.01,Snow,Light Snow,240,2014-01-25 11:58:00
7:16 AM,24.8,24.8,100,29.42,6.0,WSW,21.9,32.2,N/A,Snow,Light Snow,240,2014-01-25 12:16:00
7:58 AM,28.4,28.4,100,29.46,7.0,WSW,16.1,-,0.01,Snow,Light Snow,250,2014-01-25 12:58:00
8:58 AM,28.8,28.8,100,29.47,1.2,West,13.8,-,0.01,Snow,Light Snow,270,2014-01-25 13:58:00
9:03 AM,28.4,28.4,100,29.43,4.0,West,13.8,-,N/A,Snow,Light Snow,270,2014-01-25 14:03:00
9:08 AM,28.4,28.4,100,29.43,10.0,West,15.0,-,N/A,Snow,Light Snow,270,2014-01-25 14:08:00
9:17 AM,30.2,30.2,100,29.43,8.0,West,16.1,-,N/A,,Mostly Cloudy,280,2014-01-25 14:17:00
9:27 AM,30.2,28.4,93,29.44,4.0,WNW,17.3,24.2,N/A,,Mostly Cloudy,290,2014-01-25 14:27:00
9:54 AM,28.4,26.6,93,29.44,3.0,WNW,20.7,28.8,N/A,Snow,Light Snow,290,2014-01-25 14:54:00
9:58 AM,28.4,26.6,93,29.48,1.8,WNW,19.6,28.8,0.01,Snow,Light Snow,290,2014-01-25 14:58:00
10:30 AM,26.6,24.8,93,29.46,3.0,WNW,20.7,-,N/A,,Scattered Clouds,290,2014-01-25 15:30:00
10:58 AM,27.5,24.1,87,29.51,2.0,WNW,24.2,38.0,0.00,Snow,Light Snow,290,2014-01-25 15:58:00
11:08 AM,28.4,23.0,80,29.47,2.5,WNW,29.9,38.0,N/A,Snow,Light Snow,290,2014-01-25 16:08:00
11:13 AM,26.6,23.0,86,29.47,2.0,WNW,25.3,38.0,N/A,Snow,Light Snow,290,2014-01-25 16:13:00
11:18 AM,28.4,23.0,80,29.48,2.5,WNW,20.7,34.5,N/A,Snow,Light Snow,300,2014-01-25 16:18:00
11:23 AM,28.4,24.8,86,29.48,5.0,WNW,24.2,31.1,N/A,Snow,Light Snow,290,2014-01-25 16:23:00
11:58 AM,26.8,23.7,88,29.55,1.0,NNW,24.2,36.8,0.02,Snow,Snow,330,2014-01-25 16:58:00
12:08 PM,23.0,21.2,93,29.51,0.8,NNW,19.6,29.9,N/A,Snow,Light Snow,330,2014-01-25 17:08:00
12:13 PM,23.0,21.2,93,29.51,1.0,NW,19.6,28.8,N/A,Snow,Light Snow,320,2014-01-25 17:13:00
12:18 PM,23.0,21.2,93,29.52,1.2,NW,19.6,28.8,N/A,Snow,Light Snow,320,2014-01-25 17:18:00
12:23 PM,23.0,19.4,86,29.52,1.5,NW,19.6,27.6,N/A,Snow,Light Snow,320,2014-01-25 17:23:00
12:28 PM,23.0,17.6,80,29.52,7.0,NW,19.6,27.6,N/A,Snow,Light Snow,310,2014-01-25 17:28:00
12:58 PM,22.3,16.7,79,29.58,5.0,NNW,19.6,29.9,0.00,Snow,Light Snow,330,2014-01-25 17:58:00
1:58 PM,20.8,9.7,62,29.61,-9999.0,NW,23.0,33.4,0.00,Snow,Light Snow,310,2014-01-25 18:58:00
2:04 PM,21.2,10.4,63,29.57,10.0,NNW,21.9,28.8,N/A,,Overcast,330,2014-01-25 19:04:00
2:58 PM,19.6,9.0,63,29.65,10.0,NW,21.9,33.4,0.00,,Mostly Cloudy,320,2014-01-25 19:58:00
3:57 PM,18.3,7.7,63,29.69,10.0,WNW,21.9,33.4,N/A,,Partly Cloudy,300,2014-01-25 20:57:00
4:58 PM,15.6,5.4,64,29.75,10.0,WNW,24.2,29.9,N/A,,Partly Cloudy,290,2014-01-25 21:58:00
5:58 PM,12.9,4.1,68,29.80,10.0,WNW,19.6,-,N/A,,Clear,290,2014-01-25 22:58:00
6:58 PM,10.8,1.6,67,29.84,10.0,WNW,19.6,-,N/A,,Clear,290,2014-01-25 23:58:00
7:57 PM,9.1,0.5,68,29.87,10.0,West,10.4,-,N/A,,Clear,280,2014-01-26 00:57:00
8:58 PM,7.9,1.0,74,29.89,10.0,West,16.1,-,N/A,,Clear,280,2014-01-26 01:58:00
9:58 PM,6.8,0.5,75,29.90,10.0,West,11.5,-,N/A,,Clear,280,2014-01-26 02:58:00
10:58 PM,5.0,-1.1,76,29.91,10.0,West,6.9,-,N/A,,Clear,280,2014-01-26 03:58:00
11:58 PM,2.3,-2.0,82,29.90,10.0,West,5.8,-,N/A,,Clear,260,2014-01-26 04:58:00